STARLINK-37537, 69420

Orbit data source: Space-Track

STARLINK-37537, 69420 is a payload satellite owned by SpaceX/Seattle (US) in SSO that was launched on Sun, 07 Jun 2026 UTC via an FALCON 9 launch vehicle from the Air Force Western Test Range (AFWTR). Payload-class satellites include a variety of spacecraft equipped with specific instruments for various scientific and technological missions. These include communications satellites like Starlink; space stations such as the ISS; scientific satellites like the Hubble; Earth observation satellites from companies like Planet Labs, Umbra, and HawkEye 360; GPS; miniature CubeSats for education and research; and military/defense satellites.

Loading next visibility...
Identifier
69420, 2026-126A
Orbit
SSO
Country
Flag of USUS
Related business
Manufacturer
SpaceX/Seattle
Mission
Operational spacecraft
Bus & Motor
STARLINK V2MO, Unknown motor
Mass
575 kg wet, ~530 kg dry
Launch date (UTC)
2026-06-07 (2 weeks ago)
Launch vehicle
FALCON 9
Launch site
Air Force Western Test Range (AFWTR)
Object type
Payload
Rocket body
Debris
Shape & HBR
Unknown
Radar Cross Section
RCS unknown

Expand to show TLE details & history
Last TLE update: 1 day ago

TLE from 1 day ago
0 STARLINK-37537
1 69420U 26126A   26170.84177401  .00186036  00000-0  12197-2 0  9992
2 69420  97.2831  30.9483 0001114  91.7906 268.3487 15.75218056  3167
Epoch: 2026-06-19T20:12Z
TLE epoch observation values (Epoch: 2026-06-19T20:12:09.274Z)
Latitude
-0.00001°
Longitude
179.8447°
Altitude
347.201 km
Speed
7.701 km/s
True Right ascension
02h 03m 47s
True Declination
0° 00' 00"
Sunlit
Object was in daylight at epoch
Visualization orbit readout
Latitude
Unknown
Longitude
Unknown
Altitude
Unknown
Speed
Unknown
Apparent Right ascension
Unknown
Apparent Declination
Unknown
Sunlit
N/A
Visualization observer readout
Local Sidereal Time
07:17:12
Azimuth
Unknown
Elevation
Unknown
Doppler factor
Unknown
Orbital elements
Apogee altitude
341.647 km
Perigee altitude
340.15 km
Semi-major axis
6,719.035 km
Eccentricity
0.00011
Inclination
97.2831°
RAAN
30.9483°
Arg. of periapsis
91.7906°
True anomaly
268.33594°
Mean anomaly
268.3487°
Eccentric anomaly
268.34232°
Mean motion
3.94079 °/min
Orbital period
91.35 mins
BSTAR
0.0012197
Loading maneuver chart data...
Computing Atmospheric mass density...
Loading historical data...
Loading historical data...
Loading historical data...
Loading historical data...
Loading historical data...
Loading historical data...
Loading historical data...

Documentation

Showing up to 5 results
|